weather.gov     
National Weather Service

Terminal Aerodrome Forecast
NWS Homepage
This page is being discontinued on March 12, 2014.
The same data is available at this site. Please update your bookmarks.
Thank you, and we apologize for the inconvenience.
Please send an email to SR-SRH.Webmaster@noaa.gov with any concerns.


Current Version
Previous Version:    01  02  03  04  05  06  07  08  09  10  11  12  13  14  15  16  17  18  19  20  21  22  23  24  25  26  27  28  29  30  
   31  32  33  34  35  36  37  38  39  40  41  42  43  44  45  46  47  48  49  
[Printable]
934
FTUS41 KCTP 230548
TAFLNS
TAF
KLNS 230548Z 2306/2406 VRB03KT P6SM SCT070 WS017/23035KT
     FM231400 18004KT P6SM SCT250
     FM240100 13007KT 5SM -RA BR SCT025 OVC050
     FM240500 14008G15KT 4SM -RA BR OVC025 WS020/15040KT=




934
FTUS41 KCTP 230548
TAFLNS
TAF
KLNS 230548Z 2306/2406 VRB03KT P6SM SCT070 WS017/23035KT
     FM231400 18004KT P6SM SCT250
     FM240100 13007KT 5SM -RA BR SCT025 OVC050
     FM240500 14008G15KT 4SM -RA BR OVC025 WS020/15040KT=


U.S. Dept. of Commerce
NOAA National Weather Service
1325 East West Highway
Silver Spring, MD 20910
E-mail: w-nws.webmaster@noaa.gov
Page last modified: May 16, 2007
NATIONAL WEATHER SERVICE: for Safety, for Work, for Fun - FOR LIFE